contact:dominique.lefevre@mio.osupytheas.fr, maurice.libes@osupytheas.fr
Project:EMSO Ligure-ouest http://www.emso-fr.org/EMSO-France
Sensor Aquadopp, line 13 Serial AQD14315 
DOI : "https://doi.org/10.17882/74513; https://doi.org/10.17882/83244" 
Title:EMSO Ligure Ouest : Data ligne ALBATROSS capteur AQUADOPP - deploiement 2021
Id,Date,Profondeur,Latitude,Longitude,X_East,Y_North,Z_Up,Amplitude_X,Amplitude_Y,Amplitude_Z,Batterie,SoundSpeed,Heading,Pitch,Roll,Pressure,Temperature,Speed,Direction
, , m, degrees North, degrees East, m.s-1, m.s-1,m.s-1, 1, 1, 1, Volt, m.s-1, degree, degree, degree, dbar, degree_C, m.s-1, degree
09,2022-03-17T21:30:00,2000.0,42.79,6.0312,-0.02,-0.007,-0.014,72.0,65.0,71.0,12.0,1504.7,219.8,-0.7,1.0,1990.507,13.29,0.021,250.7
09,2022-03-17T22:00:00,2000.0,42.79,6.0312,-0.016,0.01,-0.025,73.0,69.0,71.0,12.0,1504.7,226.8,-0.8,0.9,1990.519,13.29,0.018,302.0
09,2022-03-17T22:30:00,2000.0,42.79,6.0312,-0.029,-0.007,-0.011,73.0,67.0,75.0,12.0,1504.7,223.8,-0.7,1.0,1990.479,13.29,0.029,256.4
09,2022-03-17T23:00:00,2000.0,42.79,6.0312,-0.009,-0.009,-0.006,72.0,67.0,68.0,12.0,1504.7,228.0,-0.7,0.9,1990.445,13.29,0.012,225.0
09,2022-03-18T00:00:00,2000.0,42.79,6.0312,-0.01,0.009,-0.008,70.0,69.0,71.0,12.0,1504.7,223.9,-0.6,1.0,1990.447,13.29,0.013,312.0
09,2022-03-18T00:30:00,2000.0,42.79,6.0312,-0.026,0.017,0.006,71.0,67.0,70.0,12.0,1504.7,233.4,-0.7,0.9,1990.401,13.29,0.031,303.2
09,2022-03-18T01:00:00,2000.0,42.79,6.0312,-0.032,0.017,0.009,72.0,67.0,71.0,12.0,1504.7,234.0,-0.7,1.0,1990.428,13.29,0.036,298.0
09,2022-03-18T01:30:00,2000.0,42.79,6.0312,-0.016,0.007,0.018,68.0,66.0,69.0,12.0,1504.7,245.8,-0.8,0.9,1990.423,13.29,0.017,293.6
09,2022-03-18T02:00:00,2000.0,42.79,6.0312,-0.02,0.0,-0.01,68.0,67.0,71.0,12.0,1504.7,243.7,-0.7,1.0,1990.462,13.29,0.02,270.0
09,2022-03-18T02:30:00,2000.0,42.79,6.0312,-0.014,0.003,0.006,72.0,67.0,73.0,12.0,1504.7,251.1,-0.7,0.9,1990.445,13.29,0.014,282.1
09,2022-03-18T03:00:00,2000.0,42.79,6.0312,-0.011,0.005,-0.018,76.0,68.0,70.0,12.0,1504.7,233.5,-0.8,0.9,1990.482,13.29,0.012,294.4
09,2022-03-18T03:30:00,2000.0,42.79,6.0312,-0.014,0.001,-0.017,71.0,67.0,70.0,12.0,1504.7,20.3,-0.3,0.9,1990.48,13.29,0.014,274.1
09,2022-03-18T04:00:00,2000.0,42.79,6.0312,-0.009,0.0,-0.005,70.0,70.0,70.0,12.0,1504.7,31.0,-0.7,0.9,1990.461,13.29,0.009,270.0
09,2022-03-18T04:30:00,2000.0,42.79,6.0312,-0.026,0.0,0.017,71.0,68.0,71.0,12.0,1504.7,43.9,-0.7,0.9,1990.551,13.29,0.026,270.0
09,2022-03-18T05:00:00,2000.0,42.79,6.0312,-0.021,-0.001,-0.019,70.0,68.0,68.0,12.0,1504.7,40.6,-0.9,0.9,1990.597,13.29,0.021,267.3
09,2022-03-18T05:30:00,2000.0,42.79,6.0312,-0.023,-0.002,-0.008,73.0,67.0,74.0,12.0,1504.7,39.7,-0.7,0.9,1990.649,13.29,0.023,265.0
09,2022-03-18T06:00:00,2000.0,42.79,6.0312,-0.03,-0.013,-0.025,72.0,68.0,71.0,12.0,1504.7,35.8,-0.5,0.9,1990.606,13.29,0.032,246.6
09,2022-03-18T06:30:00,2000.0,42.79,6.0312,-0.04,0.018,-0.007,72.0,68.0,72.0,12.0,1504.7,30.9,-0.5,0.9,1990.642,13.29,0.043,294.2
09,2022-03-18T07:00:00,2000.0,42.79,6.0312,-0.027,0.003,-0.002,71.0,67.0,70.0,12.0,1504.7,43.6,-0.6,0.9,1990.646,13.29,0.027,276.3
09,2022-03-18T07:30:00,2000.0,42.79,6.0312,-0.045,-0.008,-0.032,70.0,66.0,69.0,12.0,1504.7,46.0,-0.5,0.9,1990.694,13.29,0.045,259.9
09,2022-03-18T08:00:00,2000.0,42.79,6.0312,-0.024,-0.009,0.015,72.0,68.0,71.0,12.0,1504.7,38.1,-0.8,0.9,1990.715,13.29,0.025,249.4
09,2022-03-18T08:30:00,2000.0,42.79,6.0312,-0.037,-0.002,-0.031,71.0,66.0,71.0,12.0,1504.7,132.8,-0.5,1.0,1990.658,13.29,0.037,266.9
09,2022-03-18T09:00:00,2000.0,42.79,6.0312,-0.039,0.017,-0.032,70.0,69.0,70.0,12.0,1504.7,136.1,-0.6,1.0,1990.661,13.29,0.042,293.5
09,2022-03-18T09:30:00,2000.0,42.79,6.0312,-0.012,-0.005,-0.022,69.0,66.0,69.0,12.0,1504.7,148.6,-0.7,0.9,1990.619,13.29,0.013,247.4
09,2022-03-18T10:00:00,2000.0,42.79,6.0312,-0.041,0.009,0.013,72.0,68.0,69.0,12.0,1504.7,150.1,-0.5,1.0,1990.612,13.29,0.041,282.4
09,2022-03-18T10:30:00,2000.0,42.79,6.0312,-0.016,0.001,-0.008,70.0,68.0,70.0,12.0,1504.7,163.8,-0.7,1.0,1990.594,13.29,0.016,273.6
09,2022-03-18T11:00:00,2000.0,42.79,6.0312,-0.038,0.005,0.002,67.0,68.0,67.0,12.0,1504.7,168.7,-0.5,1.0,1990.556,13.29,0.038,277.5
09,2022-03-18T11:30:00,2000.0,42.79,6.0312,-0.043,-0.01,-0.004,67.0,67.0,71.0,12.0,1504.7,178.3,-0.7,1.0,1990.563,13.29,0.044,256.9
09,2022-03-18T12:00:00,2000.0,42.79,6.0312,-0.015,0.002,-0.013,70.0,65.0,71.0,12.0,1504.7,167.8,-0.7,1.0,1990.504,13.29,0.015,277.6
09,2022-03-18T13:00:00,2000.0,42.79,6.0312,0.0,0.01,-0.025,70.0,65.0,71.0,12.0,1504.7,192.4,-0.6,1.0,1990.468,13.29,0.01,0.0
09,2022-03-18T13:30:00,2000.0,42.79,6.0312,-0.021,-0.012,0.024,70.0,67.0,71.0,12.0,1504.7,204.8,-0.6,1.0,1990.489,13.29,0.024,240.3
09,2022-03-18T14:00:00,2000.0,42.79,6.0312,-0.032,0.001,-0.004,70.0,67.0,70.0,12.0,1504.7,191.8,-0.7,1.1,1990.431,13.29,0.032,271.8
09,2022-03-18T14:30:00,2000.0,42.79,6.0312,-0.022,-0.003,-0.009,71.0,67.0,69.0,12.0,1504.7,193.6,-0.6,1.0,1990.457,13.29,0.022,262.2
09,2022-03-18T15:00:00,2000.0,42.79,6.0312,-0.024,0.007,-0.008,71.0,68.0,68.0,12.0,1504.7,203.2,-0.6,0.9,1990.438,13.29,0.025,286.3
09,2022-03-18T15:30:00,2000.0,42.79,6.0312,-0.03,0.005,-0.002,71.0,66.0,68.0,12.0,1504.7,199.4,-0.5,1.0,1990.419,13.29,0.03,279.5
09,2022-03-18T16:00:00,2000.0,42.79,6.0312,-0.02,0.001,0.005,68.0,67.0,73.0,12.0,1504.7,217.2,-0.6,1.0,1990.47,13.29,0.02,272.9
09,2022-03-18T16:30:00,2000.0,42.79,6.0312,-0.045,0.029,-0.003,74.0,67.0,68.0,12.0,1504.7,229.6,-0.8,1.0,1990.487,13.29,0.053,302.8
09,2022-03-18T17:00:00,2000.0,42.79,6.0312,-0.012,0.021,-0.02,70.0,67.0,71.0,12.0,1504.7,232.3,-0.7,1.0,1990.531,13.29,0.024,330.3
09,2022-03-18T17:30:00,2000.0,42.79,6.0312,-0.025,0.011,-0.021,72.0,67.0,71.0,12.0,1504.7,227.7,-0.8,1.0,1990.529,13.29,0.027,293.7
09,2022-03-18T18:00:00,2000.0,42.79,6.0312,-0.038,0.012,0.015,71.0,67.0,71.0,12.0,1504.7,226.6,-0.5,1.0,1990.621,13.29,0.039,287.5
09,2022-03-18T18:30:00,2000.0,42.79,6.0312,-0.02,0.005,-0.002,71.0,66.0,71.0,12.0,1504.7,231.1,-0.8,0.9,1990.617,13.29,0.02,284.0
09,2022-03-18T19:00:00,2000.0,42.79,6.0312,-0.031,0.012,0.0,72.0,70.0,70.0,12.0,1504.7,232.1,-0.6,1.1,1990.649,13.29,0.033,291.2
09,2022-03-18T19:30:00,2000.0,42.79,6.0312,-0.007,0.013,-0.025,72.0,67.0,70.0,12.0,1504.7,226.3,-0.9,0.9,1990.598,13.29,0.014,331.7
09,2022-03-18T20:00:00,2000.0,42.79,6.0312,-0.013,0.015,-0.006,73.0,67.0,74.0,12.0,1504.7,222.6,-0.3,1.0,1990.572,13.29,0.019,319.1
09,2022-03-18T20:30:00,2000.0,42.79,6.0312,-0.028,0.019,0.009,74.0,68.0,72.0,12.0,1504.7,74.9,-0.5,1.0,1990.603,13.29,0.033,304.2
09,2022-03-18T21:00:00,2000.0,42.79,6.0312,-0.005,0.018,-0.025,73.0,67.0,70.0,12.0,1504.7,83.3,-0.5,1.0,1990.564,13.29,0.018,344.5
